This is the latest recevied weather packets stored in our database for station/object WX5KDM. If no packets are shown the sender has not sent any weather packets the latest 10 day(s).
| Time | Temp. | Humidity | Pressure | Rain* | Wind** | Luminosity | Snow |
|---|---|---|---|---|---|---|---|
| 1788300153 | 36.11° C | 45% | 1016.8 hPa | 0 mm | - | - | - |
| 1788299851 | 36.11° C | 43% | 1016.8 hPa | 0 mm | - | - | - |
| 1788299546 | 35.56° C | 46% | 1016.9 hPa | 0 mm | - | - | - |
| 1788299244 | 35.56° C | 44% | 1016.8 hPa | 0 mm | - | - | - |
| 1788298938 | 36.11° C | 43% | 1017.1 hPa | 0 mm | - | - | - |
| 1788298632 | 36.67° C | 42% | 1016.8 hPa | 0 mm | - | - | - |
| 1788298327 | 36.67° C | 42% | 1016.9 hPa | 0 mm | - | - | - |
| 1788298027 | 36.67° C | 41% | 1016.9 hPa | 0 mm | - | - | - |
| 1788297723 | 36.11° C | 43% | 1017 hPa | 0 mm | - | - | - |
| 1788297423 | 36.67° C | 44% | 1017.1 hPa | 0 mm | - | - | - |
| 1788297119 | 36.67° C | 44% | 1017 hPa | 0 mm | - | - | - |
| 1788296814 | 36.67° C | 43% | 1017 hPa | 0 mm | - | - | - |
| 1788296510 | 36.67° C | 44% | 1017.1 hPa | 0 mm | - | - | - |
| 1788296205 | 37.22° C | 43% | 1017 hPa | 0 mm | - | - | - |
| 1788295900 | 37.22° C | 42% | 1017 hPa | 0 mm | - | - | - |
| 1788295596 | 36.67° C | 45% | 1017.2 hPa | 0 mm | - | - | - |
| 1788295291 | 36.67° C | 45% | 1017.3 hPa | 0 mm | - | - | - |
| 1788294986 | 36.11° C | 44% | 1017.3 hPa | 0 mm | - | - | - |
| 1788294680 | 35.56° C | 46% | 1017.2 hPa | 0 mm | - | - | - |
| 1788294380 | 36.11° C | 44% | 1017.3 hPa | 0 mm | - | - | - |
| 1788294076 | 36.11° C | 44% | 1017.4 hPa | 0 mm | - | - | - |
| 1788293772 | 36.67° C | 45% | 1017.3 hPa | 0 mm | - | - | - |
| 1788293471 | 37.22° C | 45% | 1017.4 hPa | 0 mm | - | - | - |
| 1788293170 | 36.67° C | 45% | 1017.3 hPa | 0 mm | - | - | - |
| 1788292865 | 36.67° C | 44% | 1017.4 hPa | 0 mm | - | - | - |
* Rain latest hour (hover to see other rain measurements)
** Current wind speed in m/s (hover to see current wind gust speed)